This is the latest recevied weather packets stored in our database for station/object EA1AHA-13. If no packets are shown the sender has not sent any weather packets the latest 10 day(s).
| Time | Temp. | Humidity | Pressure | Rain* | Wind** | Luminosity | Snow |
|---|---|---|---|---|---|---|---|
| 1777401679 | 16.11° C | 85% | 1010.3 hPa | 0 mm | - | - | - |
| 1777401103 | 15.56° C | 86% | 1010.4 hPa | 0 mm | - | - | - |
| 1777400478 | 16.11° C | 85% | 1010.3 hPa | 0 mm | - | - | - |
| 1777399902 | 15.56° C | 85% | 1010.3 hPa | 0 mm | - | - | - |
| 1777399279 | 16.11° C | 85% | 1010.3 hPa | 0 mm | - | - | - |
| 1777398703 | 16.11° C | 85% | 1010.6 hPa | 0 mm | - | - | - |
| 1777398078 | 16.11° C | 85% | 1010.5 hPa | 0 mm | - | - | - |
| 1777397502 | 16.11° C | 86% | 1010.7 hPa | 0 mm | - | - | - |
| 1777396879 | 16.11° C | 86% | 1011 hPa | 0 mm | - | - | - |
| 1777396302 | 16.11° C | 85% | 1010.8 hPa | 0 mm | - | - | - |
| 1777395679 | 16.11° C | 85% | 1010.8 hPa | 0 mm | - | - | - |
| 1777395103 | 16.11° C | 85% | 1010.8 hPa | 0 mm | - | - | - |
| 1777394479 | 16.67° C | 84% | 1010.9 hPa | 0 mm | - | - | - |
| 1777393903 | 17.22° C | 82% | 1010.7 hPa | 0 mm | - | - | - |
| 1777393280 | 17.22° C | 80% | 1010.4 hPa | 0 mm | - | - | - |
| 1777392702 | 17.22° C | 79% | 1010.7 hPa | 0 mm | - | - | - |
| 1777392079 | 17.78° C | 79% | 1010.7 hPa | 0 mm | - | - | - |
| 1777391503 | 17.78° C | 78% | 1010.7 hPa | 0 mm | - | - | - |
| 1777390878 | 18.33° C | 75% | 1010.9 hPa | 0 mm | - | - | - |
| 1777390303 | 17.78° C | 75% | 1010.7 hPa | 0 mm | - | - | - |
| 1777389679 | 18.33° C | 73% | 1011 hPa | 0 mm | - | - | - |
| 1777389103 | 18.89° C | 71% | 1011.2 hPa | 0 mm | - | - | - |
| 1777388479 | 18.89° C | 69% | 1010.9 hPa | 0 mm | - | - | - |
| 1777387902 | 18.89° C | 68% | 1011.2 hPa | 0 mm | - | - | - |
| 1777387278 | 18.89° C | 66% | 1011 hPa | 0 mm | - | - | - |
* Rain latest hour (hover to see other rain measurements)
** Current wind speed in m/s (hover to see current wind gust speed)